Wetbulb
50.38 50.59 50.63 50.47 50.28 50.30 50.30 50.06 49.95 49.69 49.54 49.67 49.93 50.10 50.23 50.21 49.98 49.95 48.27 47.09 45.81 39.83 40.63 42.34 42.72 40.45 40.59 40.57 37.35 41.09 41.71 44.20 47.07 43.69 43.76 43.81 44.11 45.69 46.66 50.39 48.78 47.56 46.69 45.46 47.53 45.86 45.61 56.60 55.41 54.15 60.98 62.40 61.98 61.30
50.15 50.30 50.38 50.38 50.37 50.41 50.35 50.39 50.11 50.11 50.01 49.73 49.60 50.20 50.18 50.48 50.05 49.35 44.26 48.93 48.43 42.65 40.92 45.56 45.48 46.68 45.14 44.37 41.28 41.85 41.52 40.94 44.81 44.41 46.87 46.99 45.56 46.70 49.19 43.95 51.04 48.60 53.27 50.60 52.10 50.45 61.67 57.61 60.04 61.59 61.03 64.20 62.19 63.79
50.37 50.01 49.96 50.17 50.28 50.22 50.27 50.31 50.33 50.24 50.09 50.12 50.29 50.54 50.63 50.74 50.20 49.01 45.08 45.67 43.34 40.75 40.07 40.78 40.84 45.97 47.61 46.62 48.32 39.25 42.98 44.78 44.36 45.30 43.45 45.39 46.06 49.70 45.26 47.03 51.87 53.53 53.98 53.61 52.69 58.49 56.63 57.78 59.52 62.44 60.76 61.72 63.67 64.63
51.19 51.21 50.79 50.15 49.97 49.92 50.02 50.27 50.27 50.31 50.45 50.39 50.47 50.48 50.38 50.32 50.70 49.67 44.32 45.78 43.48 41.65 33.96 38.33 46.64 44.69 48.75 47.37 46.87 45.81 45.28 46.02 45.20 44.72 43.90 43.79 44.39 51.54 50.73 49.61 49.83 54.62 55.69 56.86 56.00 57.60 59.28 60.91 62.15 62.86 62.36 63.18 63.88 65.52
51.29 51.29 51.48 51.46 51.32 50.95 50.73 50.90 50.72 50.80 50.99 50.96 50.95 50.93 50.72 50.82 50.29 49.83 48.56 46.67 45.98 39.57 34.91 37.32 43.52 46.77 47.29 46.75 46.53 46.14 45.28 43.72 42.57 41.93 43.50 45.61 49.99 51.19 53.35 52.60 50.34 53.80 56.82 54.67 54.46 62.54 63.27 63.42 64.66 64.11 63.38 63.73 65.26 65.40
50.83 51.06 51.18 51.28 51.17 51.50 51.36 51.68 51.51 51.27 51.29 51.35 51.49 51.33 51.30 51.08 50.32 46.15 40.97 46.96 47.61 45.33 38.07 34.88 44.65 45.41 47.44 45.92 45.80 44.23 44.09 43.53 43.91 43.86 45.22 50.12 53.17 52.48 50.93 51.33 54.47 57.36 58.31 58.89 58.55 59.83 61.36 62.73 64.29 64.68 64.29 64.87 65.77 65.91
50.83 50.83 51.10 51.16 51.20 51.25 51.35 51.15 51.27 51.36 51.34 51.39 51.15 51.00 50.66 50.71 49.72 42.71 42.11 46.71 47.88 46.19 40.41 37.13 38.92 44.95 47.35 45.12 45.83 45.59 46.84 46.09 45.03 46.36 47.96 50.70 53.23 53.44 52.47 50.32 55.88 57.61 58.65 59.84 60.85 61.82 62.04 63.40 63.20 64.50 64.87 65.14 63.74 65.60
50.91 51.03 51.07 51.29 51.12 51.01 50.95 50.91 51.00 50.90 51.10 51.02 50.77 50.38 50.70 50.49 49.28 45.36 48.20 49.39 48.22 44.27 42.46 36.46 38.35 43.13 47.65 42.93 42.84 48.68 47.54 47.04 48.22 49.99 52.73 51.03 53.28 53.72 50.99 54.79 56.78 57.78 58.76 60.14 60.62 63.02 62.73 64.48 64.08 63.57 64.19 63.96 63.12 62.88
50.66 50.88 51.04 51.07 51.04 50.97 50.82 50.80 51.07 50.82 50.76 50.72 49.92 50.24 49.36 47.40 43.95 45.85 50.73 51.10 48.78 44.30 37.88 39.17 38.42 39.05 47.91 46.61 48.07 48.46 50.84 45.01 50.89 49.43 50.78 52.48 52.04 51.05 54.50 55.62 56.36 57.47 56.73 56.85 60.72 62.13 62.90 62.82 61.92 61.78 62.32 62.63 61.70 60.89
50.41 50.65 50.84 50.91 50.80 50.72 50.55 50.85 50.94 50.45 50.22 49.06 48.62 46.55 43.36 46.14 50.59 50.41 46.31 42.02 41.45 42.66 41.71 38.97 43.64 40.86 46.63 48.44 47.12 47.67 49.53 45.16 43.11 47.50 51.03 50.21 50.72 55.18 55.93 57.11 57.51 58.25 58.43 60.54 59.84 59.58 60.68 60.64 60.54 60.69 61.14 61.66 61.87 61.68
50.54 50.61 50.67 50.85 50.84 50.77 50.81 50.91 50.62 50.34 49.27 47.43 44.58 43.25 47.23 48.88 47.24 45.04 39.25 38.71 39.42 38.23 42.02 42.77 44.78 42.35 50.12 45.95 46.31 46.76 46.46 46.87 40.65 46.02 47.25 48.48 48.82 53.90 56.62 55.86 59.27 59.57 60.40 60.67 61.23 61.97 62.59 62.03 60.76 60.16 60.21 60.84 61.03 60.45
50.65 50.46 50.45 50.48 50.60 50.86 51.01 50.73 50.45 48.54 47.95 47.66 46.30 47.96 47.41 46.44 43.50 39.34 38.30 41.39 40.83 38.20 42.16 43.33 44.41 46.71 49.36 49.96 46.14 46.03 44.77 45.26 40.52 49.43 47.31 45.13 51.52 54.29 54.23 56.36 58.59 60.06 60.25 60.09 61.04 60.13 60.62 60.90 60.79 59.96 59.57 59.42 59.68 59.47
50.27 50.41 50.37 50.33 50.50 50.94 50.76 50.66 50.67 50.72 49.77 48.69 45.44 45.64 43.44 43.36 36.53 33.05 34.15 34.96 35.80 41.54 44.02 42.57 44.91 47.92 48.71 49.39 47.02 44.90 42.76 42.33 48.58 44.57 43.71 48.23 51.62 53.86 55.18 56.82 58.25 59.28 59.70 59.38 59.14 59.50 59.18 58.59 58.87 58.55 57.74 58.51 58.73 57.83
49.37 50.16 50.32 50.41 50.87 50.34 50.78 50.75 50.88 49.56 47.90 45.11 42.62 36.23 39.94 38.98 39.16 39.65 39.63 40.96 45.06 46.46 47.24 47.03 45.79 46.46 48.05 46.34 46.75 42.23 44.47 45.54 41.93 40.29 42.72 49.58 51.58 54.88 55.06 56.45 57.24 57.55 58.70 58.79 58.94 58.98 58.43 58.14 57.57 58.05 57.83 57.55 56.09 55.09
49.15 50.04 50.25 50.21 50.11 50.62 50.71 50.45 50.16 50.21 47.72 43.36 43.47 36.57 39.28 43.31 43.52 43.98 45.38 45.31 46.90 48.83 48.09 47.36 47.05 47.23 46.79 45.41 46.85 44.48 41.34 40.26 42.65 43.71 47.87 51.99 52.15 54.91 55.38 54.76 55.09 56.28 57.05 57.33 58.29 57.88 57.34 57.13 56.64 56.07 55.42 55.11 54.23 54.02
49.48 50.06 49.37 49.95 50.56 50.64 50.02 50.35 50.78 49.96 46.64 45.04 44.29 40.85 43.53 42.30 41.90 43.46 44.61 45.24 48.29 48.87 50.03 49.26 44.31 42.75 42.42 43.58 42.73 42.09 40.29 39.54 44.78 48.25 49.75 53.33 53.09 54.59 54.63 55.23 55.24 56.04 56.75 57.48 57.73 57.52 57.42 56.37 55.71 54.90 55.33 54.98 54.72 54.85
49.49 48.99 49.58 49.91 50.16 50.09 49.54 51.07 50.14 45.93 44.38 43.56 42.08 43.06 44.16 42.68 42.80 43.83 45.71 45.75 48.60 47.82 43.80 44.86 40.35 40.73 45.54 41.66 40.80 43.98 40.87 43.69 45.97 47.17 51.58 53.36 53.68 54.34 55.09 55.51 55.87 57.30 57.32 57.10 57.57 58.34 57.40 57.25 57.30 56.44 54.86 55.01 55.15 54.79
48.20 49.65 49.87 50.00 50.64 49.87 50.54 49.63 47.27 46.07 42.19 43.32 40.75 43.14 43.74 44.89 44.53 46.07 46.33 48.13 47.71 47.62 46.57 43.18 46.13 41.20 37.30 37.56 41.90 45.98 48.55 49.98 50.94 50.76 51.14 53.54 53.64 53.96 54.83 55.57 56.79 57.68 56.51 56.02 55.32 55.46 56.13 55.75 55.97 55.54 55.51 54.98 54.27 55.02
49.07 50.07 50.29 51.04 50.14 49.28 47.13 47.68 47.78 43.36 44.15 44.31 43.88 45.79 45.86 46.23 49.65 49.36 50.29 50.57 49.90 50.28 49.75 47.05 43.63 42.16 43.15 46.23 46.67 48.49 49.32 49.80 49.96 50.72 51.47 52.57 53.28 53.61 53.56 54.78 55.10 55.19 56.00 56.26 56.12 55.44 55.73 55.98 55.42 55.58 53.36 51.58 51.93 51.38
49.67 49.88 51.20 51.03 50.40 48.87 46.41 46.62 49.43 46.01 44.53 45.14 46.01 46.06 47.23 47.87 47.56 49.15 49.74 48.95 49.83 49.26 46.21 44.08 43.74 45.22 45.51 48.40 50.47 51.15 51.29 51.09 50.44 48.99 49.68 51.20 51.98 52.05 51.41 51.41 51.94 52.23 52.16 52.23 50.91 48.75 50.69 49.99 54.03 54.23 53.40 51.23 50.05 49.61
50.03 51.08 51.42 51.56 49.87 48.71 46.93 46.27 46.46 46.11 46.23 44.91 47.48 47.34 47.33 48.44 47.94 47.12 47.37 48.74 48.37 45.33 46.04 48.14 47.76 47.75 51.35 53.10 54.23 53.08 51.86 52.46 50.14 49.32 48.18 49.38 51.93 51.94 51.88 52.55 51.43 51.60 50.76 51.96 51.54 48.68 48.28 49.20 51.73 52.80 52.37 52.54 52.87 52.25
50.16 50.36 51.27 51.79 49.30 48.60 47.91 47.54 47.11 47.04 46.97 47.81 48.86 47.99 46.77 46.28 46.19 47.85 47.03 47.42 46.47 47.33 48.62 48.91 49.76 50.42 51.25 50.76 51.46 52.81 54.13 54.90 55.06 52.60 49.85 50.04 50.53 51.40 51.40 51.40 50.53 50.43 50.39 50.90 50.89 49.98 50.10 50.70 51.15 52.04 51.87 51.85 50.67 52.13
50.06 50.30 50.38 50.72 48.24 45.39 44.40 48.71 48.24 48.25 46.72 46.93 48.45 46.57 46.86 47.27 48.76 50.84 48.07 48.37 48.59 50.25 49.94 50.27 50.78 51.13 51.49 52.80 53.63 52.33 52.08 54.16 53.29 53.67 53.92 53.47 53.04 53.34 52.63 52.13 51.29 50.36 50.37 51.80 52.93 53.06 52.84 48.27 49.46 52.77 53.26 51.65 51.16 51.73
50.02 49.16 48.17 48.26 48.86 44.25 49.93 48.42 49.40 48.12 48.14 46.60 45.53 43.67 45.72 46.94 48.11 45.92 44.41 47.92 49.38 52.28 50.47 50.80 51.83 52.29 53.04 54.00 51.68 51.70 52.10 53.27 53.16 53.10 53.35 53.91 53.07 52.38 52.62 52.30 52.97 53.20 53.69 53.26 54.16 55.01 55.59 54.47 49.48 53.46 52.96 51.94 53.33 53.02
44.01 44.38 46.52 39.90 49.07 47.45 45.64 45.46 46.66 46.18 43.38 44.94 44.24 44.69 46.38 47.09 44.39 43.74 44.03 47.41 49.74 50.08 50.54 51.76 51.24 50.57 50.59 51.39 51.95 52.12 53.10 52.67 51.98 52.04 52.62 53.56 53.28 53.49 53.26 53.71 54.76 55.82 55.80 54.96 54.32 54.70 54.33 54.83 55.26 55.21 55.02 54.75 54.20 54.31
40.63 47.99 45.23 47.92 47.16 45.43 43.73 42.17 42.98 43.48 44.53 44.22 45.05 47.24 47.27 45.89 42.48 42.16 46.13 48.70 49.61 50.24 50.04 49.97 49.38 50.67 50.88 50.42 51.06 51.03 51.30 52.11 53.17 52.68 53.16 53.40 53.43 52.86 52.45 52.19 52.37 52.99 55.88 56.42 55.21 54.51 54.73 55.44 55.33 55.16 55.13 54.51 47.06 52.61
43.70 47.55 48.52 51.71 50.27 47.16 45.19 46.15 46.01 45.10 42.97 42.67 44.69 44.57 44.80 40.51 41.16 46.75 49.97 51.31 50.71 51.50 51.51 51.08 50.86 50.70 49.19 49.96 51.04 51.00 51.52 52.47 52.40 52.29 52.96 53.20 53.30 53.16 52.24 50.95 50.80 51.73 53.42 53.65 54.11 54.08 53.44 53.28 53.40 52.66 52.15 52.51 52.90 52.51
50.61 50.67 47.14 48.98 48.10 47.69 45.75 45.59 44.92 43.99 44.73 46.16 46.60 42.94 42.00 42.65 44.18 49.76 50.99 51.79 52.16 52.66 52.79 52.59 52.58 52.19 51.74 51.16 51.07 51.44 52.13 53.02 54.28 54.48 54.70 54.11 53.41 52.17 51.80 52.48 52.19 42.21 50.76 51.58 51.49 52.51 52.24 51.05 50.61 50.67 49.85 49.31 49.64 50.84
49.99 51.36 50.96 48.22 47.90 47.23 46.48 46.08 46.42 48.01 48.13 48.13 46.13 45.32 46.72 49.91 51.29 51.53 52.70 52.06 52.80 53.30 51.82 51.20 50.54 52.06 52.27 52.51 51.09 49.90 49.65 49.32 49.11 47.86 47.40 47.14 47.70 48.18 49.23 49.82 50.31 50.79 50.97 50.22 43.59 44.47 48.74 48.34 49.14 49.29 49.67 50.81 51.77 52.02
49.74 53.17 49.78 48.28 46.70 46.00 49.33 50.71 50.29 52.34 49.55 49.50 49.87 49.53 50.08 50.98 52.25 52.46 52.96 52.73 52.52 50.79 49.73 49.60 49.69 49.95 49.07 48.91 48.64 48.66 47.87 47.83 46.89 45.51 44.26 44.07 44.95 47.04 47.51 47.39 47.46 48.26 49.49 49.96 49.95 50.09 44.53 48.05 48.02 50.93 49.47 50.48 50.67 50.53
53.15 51.04 48.40 48.71 47.48 49.99 51.96 52.98 53.31 51.23 49.87 50.24 50.63 50.44 49.18 51.71 52.40 53.16 52.17 52.49 51.58 51.20 50.51 49.56 47.80 47.84 47.38 46.72 46.56 46.00 45.10 47.11 47.10 46.91 46.30 46.41 46.76 46.35 46.13 46.23 46.60 47.69 48.87 49.20 49.20 49.37 49.71 49.17 49.57 49.39 49.34 48.91 48.46 47.37
51.67 49.48 49.05 46.68 49.24 52.74 52.60 51.93 52.06 51.15 51.33 50.16 49.86 51.78 51.28 50.92 48.74 50.82 50.17 51.79 49.71 48.97 45.15 47.67 46.59 45.75 47.05 47.58 47.30 46.97 39.44 46.05 45.92 45.58 45.55 45.28 45.52 45.88 45.86 46.30 46.58 46.92 47.33 47.89 48.43 48.40 48.11 47.45 47.05 46.58 45.95 45.39 45.44 45.33
49.88 50.44 50.27 49.41 48.65 48.50 50.96 50.70 49.90 49.44 50.82 49.76 49.98 50.40 50.72 49.85 47.35 50.01 49.87 50.92 49.50 48.58 47.85 46.44 48.03 48.21 47.75 47.14 47.01 46.42 42.96 46.45 43.26 37.76 37.66 36.66 35.86 37.67 43.48 45.97 46.14 46.50 46.16 45.84 46.11 46.58 46.39 45.87 45.51 45.24 45.14 44.78 44.51 44.46
MSLP
1021.95 1021.44 1020.91 1020.40 1019.88 1019.36 1018.89 1018.48 1018.11 1017.88 1017.64 1017.38 1017.16 1016.91 1016.70 1016.51 1016.45 1016.51 1016.22 1016.19 1016.18 1015.56 1014.18 1013.63 1013.30 1012.81 1012.56 1012.47 1011.54 1010.45 1009.34 1008.15 1006.56 1005.17 1003.67 1002.57 1001.36 1000.74 1000.34 999.95 1000.16 1000.44 1000.72 1000.70 1000.65 999.67 997.62 997.11 997.59 996.97 996.28 996.93 997.41 998.55
1021.80 1021.24 1020.83 1020.30 1019.75 1019.15 1018.66 1018.21 1017.79 1017.49 1017.28 1017.08 1016.84 1016.58 1016.37 1016.19 1016.15 1016.18 1015.93 1015.88 1015.90 1015.56 1013.89 1013.37 1012.89 1012.49 1012.30 1012.34 1012.33 1011.34 1010.16 1009.26 1007.71 1006.35 1004.85 1003.40 1001.94 1000.92 999.82 999.35 999.72 999.26 998.23 998.36 998.78 997.40 996.76 996.83 996.56 996.25 996.46 996.41 997.24 997.89
1021.62 1021.05 1020.63 1020.05 1019.36 1018.84 1018.44 1017.98 1017.52 1017.16 1016.87 1016.62 1016.36 1016.13 1015.90 1015.77 1015.73 1015.81 1015.62 1015.63 1015.91 1015.37 1013.51 1012.38 1010.99 1010.69 1011.17 1011.39 1011.85 1011.65 1010.16 1009.55 1008.74 1008.69 1006.67 1004.87 1003.00 1001.28 999.74 998.89 998.40 998.53 998.41 997.74 998.28 996.70 996.59 996.80 997.02 996.96 996.81 996.90 997.13 997.75
1021.34 1020.73 1020.17 1019.48 1019.06 1018.64 1018.26 1017.78 1017.32 1016.86 1016.48 1016.17 1015.88 1015.62 1015.39 1015.26 1015.25 1015.34 1015.48 1015.58 1015.86 1015.15 1013.96 1011.01 1010.31 1009.98 1009.54 1010.21 1010.69 1010.88 1010.50 1010.10 1009.92 1008.97 1007.12 1005.40 1003.54 1001.82 1000.11 999.09 998.50 997.77 998.03 997.54 997.12 996.97 997.05 996.86 996.80 996.72 997.06 997.52 997.75 998.29
1021.05 1020.44 1019.77 1019.21 1018.75 1018.47 1017.90 1017.36 1016.86 1016.37 1015.94 1015.58 1015.26 1014.99 1014.79 1014.67 1014.68 1014.73 1014.73 1014.59 1014.80 1015.15 1013.67 1011.27 1009.97 1008.81 1008.62 1009.46 1010.02 1010.55 1010.80 1010.75 1010.33 1008.85 1007.11 1005.07 1003.47 1002.34 1000.74 1000.00 998.44 998.08 997.76 997.27 996.75 996.39 996.11 995.99 996.15 996.78 997.20 997.87 998.24 998.42
1020.62 1020.13 1019.49 1018.82 1018.30 1017.76 1017.20 1016.70 1016.21 1015.62 1015.10 1014.66 1014.30 1014.06 1013.98 1013.98 1014.16 1014.51 1013.98 1013.70 1013.83 1014.42 1014.06 1011.78 1009.58 1008.86 1008.63 1009.13 1009.82 1010.44 1010.74 1010.70 1010.02 1008.53 1006.54 1004.69 1003.36 1002.50 1000.60 999.41 998.82 998.98 998.93 998.68 997.54 997.62 997.23 997.05 997.10 997.26 997.54 998.21 998.85 999.58
1020.12 1019.71 1019.09 1018.36 1017.98 1017.14 1016.65 1016.09 1015.51 1014.89 1014.18 1013.70 1013.31 1013.00 1013.02 1013.22 1013.71 1013.77 1013.37 1013.22 1013.51 1014.12 1013.56 1011.79 1010.07 1008.79 1008.84 1009.14 1009.87 1010.19 1010.28 1009.91 1009.31 1007.59 1005.86 1004.19 1002.91 1002.36 1000.78 999.38 999.53 999.45 999.23 998.81 998.53 998.18 997.73 997.66 997.33 997.90 998.21 998.95 999.68 1000.40
1019.61 1019.20 1018.56 1017.94 1017.49 1016.65 1015.99 1015.28 1014.64 1013.93 1013.31 1012.75 1012.26 1011.94 1011.81 1012.24 1013.03 1013.13 1012.32 1012.66 1013.39 1013.38 1012.91 1011.81 1009.97 1008.83 1008.26 1008.27 1008.64 1008.65 1008.77 1008.92 1007.72 1006.57 1005.11 1003.84 1002.60 1002.06 1000.73 1000.04 999.99 999.95 999.44 998.85 998.46 998.36 998.10 997.94 998.33 998.70 999.17 999.57 1000.28 1001.27
1019.05 1018.66 1017.98 1017.48 1016.89 1016.27 1015.53 1014.62 1013.60 1013.07 1012.68 1011.91 1011.47 1011.53 1011.92 1012.21 1012.17 1011.93 1011.72 1011.87 1012.60 1013.09 1012.27 1011.03 1009.28 1008.19 1008.01 1007.53 1007.49 1007.54 1007.58 1007.59 1006.66 1005.80 1004.77 1003.96 1002.16 1001.35 1000.69 1000.63 1000.40 1000.22 1000.02 999.62 999.05 998.67 998.56 998.62 999.09 999.38 999.72 1000.36 1000.63 1001.67
1018.48 1018.02 1017.49 1016.85 1016.38 1015.53 1015.04 1014.17 1013.16 1012.46 1012.19 1011.32 1011.16 1011.37 1011.22 1011.05 1011.39 1011.65 1011.78 1012.12 1012.46 1012.14 1011.85 1010.54 1009.22 1008.09 1007.70 1006.97 1006.72 1007.21 1007.36 1007.28 1006.53 1005.32 1004.65 1003.47 1002.03 1001.49 1001.38 1001.23 1000.83 1000.43 1000.13 999.63 999.25 999.12 999.11 999.28 999.81 1000.31 1000.74 1001.39 1001.80 1002.65
1017.92 1017.39 1016.92 1016.33 1015.82 1014.97 1014.19 1013.68 1012.86 1012.44 1011.46 1011.23 1011.21 1011.40 1010.97 1011.09 1011.11 1010.88 1010.83 1011.02 1010.90 1010.57 1009.97 1009.13 1008.68 1007.96 1007.36 1006.93 1006.48 1007.07 1006.48 1006.30 1005.66 1004.65 1004.07 1002.85 1002.16 1001.81 1001.87 1001.44 1000.90 1000.34 1000.02 999.81 999.49 999.45 999.55 999.94 1000.51 1001.43 1001.92 1002.59 1003.23 1003.68
1017.24 1016.75 1016.27 1015.78 1015.16 1014.39 1013.45 1013.06 1012.75 1012.26 1011.85 1011.75 1012.03 1011.61 1011.00 1010.63 1010.41 1010.47 1009.91 1009.53 1009.23 1008.89 1008.62 1008.13 1007.77 1007.52 1007.23 1007.37 1006.72 1006.77 1005.81 1005.96 1004.79 1004.39 1003.64 1002.79 1002.63 1002.74 1002.43 1001.85 1001.34 1000.77 1000.32 1000.11 1000.08 1000.14 1000.46 1000.97 1001.42 1002.36 1003.13 1003.84 1004.62 1005.30
1016.70 1016.26 1015.70 1015.10 1014.55 1013.74 1012.98 1012.46 1012.08 1011.59 1011.71 1011.68 1011.43 1010.94 1010.47 1010.37 1010.29 1010.14 1009.51 1008.98 1008.83 1008.31 1007.67 1007.60 1007.15 1006.95 1007.22 1006.88 1006.38 1006.17 1005.55 1005.61 1005.10 1004.42 1003.42 1003.35 1003.28 1003.20 1002.85 1002.36 1001.98 1001.46 1001.33 1000.95 1001.13 1001.18 1001.57 1002.21 1002.88 1003.48 1004.32 1005.30 1005.86 1006.71
1016.29 1015.77 1015.12 1014.52 1013.88 1013.16 1012.49 1012.02 1011.35 1011.39 1011.49 1011.09 1010.91 1010.70 1010.66 1010.18 1010.11 1009.70 1009.17 1008.37 1007.83 1007.37 1006.91 1006.89 1006.80 1006.51 1006.52 1006.86 1006.37 1005.49 1005.74 1005.38 1004.44 1003.56 1003.43 1003.74 1004.24 1003.73 1003.28 1003.06 1002.50 1002.09 1002.33 1001.96 1002.09 1002.19 1002.48 1002.99 1003.63 1004.35 1004.99 1005.86 1006.55 1007.79
1015.83 1015.20 1014.53 1013.94 1013.41 1012.67 1011.88 1011.54 1011.18 1011.25 1010.97 1011.01 1011.10 1011.49 1011.12 1010.51 1009.86 1008.58 1007.84 1007.56 1007.24 1007.05 1006.91 1006.75 1006.71 1006.68 1006.20 1005.61 1005.75 1005.88 1005.41 1004.87 1004.46 1004.12 1004.48 1004.60 1003.92 1003.50 1003.62 1003.85 1003.74 1003.48 1003.10 1002.59 1003.14 1003.17 1003.31 1003.83 1004.18 1004.91 1005.81 1006.49 1007.29 1008.32
1015.34 1014.65 1014.16 1013.71 1012.92 1012.37 1011.59 1011.27 1011.14 1011.05 1011.27 1011.54 1011.75 1011.83 1011.09 1010.17 1009.45 1008.15 1007.66 1007.48 1007.26 1007.10 1006.81 1006.58 1006.77 1006.77 1006.79 1006.71 1005.92 1005.84 1005.67 1005.37 1005.00 1004.90 1004.80 1004.29 1004.02 1004.12 1004.07 1004.42 1004.39 1004.27 1004.06 1003.96 1004.21 1004.29 1004.43 1004.88 1005.24 1005.76 1006.39 1007.01 1007.95 1008.81
1015.16 1014.80 1014.35 1013.65 1012.89 1012.26 1011.65 1011.33 1011.21 1011.77 1012.19 1012.44 1012.39 1012.11 1011.77 1010.83 1009.97 1008.96 1008.44 1008.02 1007.74 1007.18 1007.06 1007.15 1007.37 1007.37 1007.29 1007.03 1006.95 1006.83 1006.88 1006.34 1005.69 1005.35 1004.98 1004.79 1004.78 1004.93 1005.19 1005.47 1005.21 1004.58 1004.64 1004.85 1005.15 1005.42 1005.92 1006.35 1006.74 1007.01 1007.52 1008.31 1008.66 1009.06
1015.50 1014.93 1014.44 1013.82 1013.24 1012.62 1012.25 1012.24 1012.33 1012.67 1013.06 1013.14 1013.22 1012.49 1011.83 1011.27 1010.57 1009.40 1008.65 1007.99 1007.71 1007.49 1007.33 1007.50 1007.41 1007.66 1007.79 1007.00 1006.98 1006.81 1006.55 1006.59 1005.91 1005.59 1005.24 1005.28 1005.32 1005.40 1005.68 1005.75 1005.78 1005.61 1005.93 1006.32 1006.64 1007.07 1007.32 1007.46 1007.78 1008.43 1008.76 1009.33 1009.90 1010.17
1015.80 1015.10 1014.44 1013.90 1013.60 1013.32 1013.12 1013.45 1013.63 1013.78 1013.86 1013.88 1013.41 1012.69 1012.11 1011.41 1010.44 1009.91 1009.11 1008.19 1007.97 1007.80 1007.48 1007.78 1008.26 1008.37 1008.16 1008.62 1008.27 1007.56 1007.11 1007.04 1006.91 1006.70 1006.57 1006.49 1006.42 1006.52 1006.57 1006.62 1006.83 1006.74 1007.05 1007.31 1007.61 1007.96 1008.18 1008.40 1008.52 1009.02 1009.40 1009.70 1009.74 1010.33
1015.15 1014.79 1014.31 1013.90 1013.67 1013.60 1014.00 1014.45 1014.61 1014.44 1014.39 1014.36 1013.82 1012.97 1012.39 1011.77 1011.15 1010.34 1009.67 1009.13 1008.63 1008.08 1008.76 1009.54 1010.14 1010.31 1009.96 1009.47 1009.22 1008.87 1008.46 1008.03 1007.59 1007.61 1007.55 1007.66 1007.78 1007.65 1007.71 1007.62 1007.59 1007.81 1008.08 1008.52 1008.71 1008.60 1008.83 1009.10 1009.05 1009.30 1009.45 1009.84 1010.33 1010.72
1014.87 1014.68 1014.19 1013.89 1013.96 1014.06 1014.86 1015.30 1015.22 1015.34 1014.93 1014.48 1013.99 1013.46 1012.75 1011.86 1011.17 1010.85 1010.51 1010.26 1009.45 1010.03 1010.60 1011.17 1011.18 1010.92 1010.45 1009.98 1009.67 1009.51 1009.32 1008.86 1008.57 1008.89 1008.94 1008.70 1008.65 1008.38 1008.42 1008.12 1008.24 1008.56 1008.71 1008.95 1009.04 1009.62 1009.60 1009.61 1009.75 1009.68 1009.77 1009.93 1010.27 1010.61
1015.37 1015.03 1014.66 1014.39 1014.40 1014.62 1015.02 1015.70 1015.52 1015.39 1014.99 1014.46 1013.88 1013.66 1013.22 1012.84 1012.46 1012.07 1012.00 1011.01 1011.30 1011.90 1011.91 1011.86 1011.64 1011.23 1010.62 1010.22 1010.03 1009.93 1009.81 1009.48 1009.41 1009.46 1009.54 1009.15 1009.02 1008.90 1008.94 1009.50 1009.48 1009.63 1009.72 1009.88 1009.89 1010.04 1010.25 1010.34 1010.47 1010.33 1010.38 1010.35 1010.61 1010.95
1015.55 1015.29 1014.86 1014.53 1014.29 1014.69 1015.82 1015.74 1015.04 1014.87 1014.59 1014.41 1013.93 1013.67 1013.54 1013.37 1013.03 1012.55 1012.19 1012.37 1012.58 1012.75 1012.65 1012.29 1011.88 1011.60 1011.22 1010.89 1010.43 1010.21 1010.10 1009.88 1009.71 1009.75 1009.89 1009.98 1009.85 1009.79 1010.02 1010.05 1010.14 1009.99 1010.02 1010.11 1010.15 1010.17 1010.41 1010.62 1010.73 1010.32 1010.38 1010.62 1010.91 1010.95
1015.72 1015.40 1014.92 1014.85 1014.79 1014.99 1014.97 1014.94 1014.82 1014.50 1014.35 1014.31 1014.13 1013.99 1013.94 1013.95 1013.67 1013.16 1012.93 1012.87 1012.86 1012.54 1012.27 1012.32 1011.78 1011.25 1010.92 1010.74 1010.71 1010.83 1010.72 1010.33 1010.07 1010.13 1010.26 1009.98 1009.97 1010.28 1010.29 1010.27 1010.24 1010.19 1010.09 1010.05 1010.06 1010.03 1010.13 1010.28 1010.43 1010.57 1010.56 1010.51 1010.50 1010.56
1016.03 1015.84 1015.30 1015.05 1014.93 1014.64 1014.59 1014.53 1014.37 1014.15 1014.06 1014.07 1013.99 1014.02 1014.03 1014.03 1013.71 1013.53 1013.37 1013.33 1013.04 1012.78 1012.65 1012.37 1012.12 1011.98 1011.61 1011.37 1011.19 1011.14 1011.07 1010.71 1010.40 1010.20 1010.37 1010.15 1010.04 1009.91 1010.05 1010.05 1009.99 1009.91 1009.90 1009.77 1009.84 1009.84 1009.97 1010.21 1010.25 1010.15 1010.03 1009.96 1009.99 1010.01
1015.61 1015.27 1015.03 1014.66 1014.46 1014.29 1014.38 1014.22 1014.07 1014.05 1013.95 1013.86 1014.02 1014.15 1014.10 1013.89 1013.83 1013.76 1013.71 1013.68 1013.45 1013.36 1013.27 1013.11 1012.87 1012.22 1012.03 1012.19 1011.87 1011.63 1011.53 1011.28 1010.82 1010.33 1010.48 1010.44 1010.23 1010.06 1010.00 1009.85 1009.70 1009.85 1009.99 1009.85 1009.77 1009.67 1009.59 1009.52 1009.43 1009.33 1009.24 1009.21 1009.49 1009.66
1015.20 1014.79 1014.69 1014.42 1014.26 1014.21 1014.07 1014.03 1014.03 1013.86 1013.76 1013.85 1013.98 1013.99 1014.01 1014.00 1013.95 1013.97 1013.91 1013.95 1013.78 1013.74 1013.74 1013.56 1013.24 1012.81 1012.77 1012.59 1012.37 1012.30 1012.01 1011.61 1011.39 1011.31 1011.15 1010.97 1010.89 1011.03 1010.97 1010.83 1010.66 1010.81 1010.47 1010.11 1009.95 1009.82 1009.61 1009.46 1009.38 1009.38 1009.33 1009.22 1009.16 1009.14
1014.82 1014.66 1014.37 1014.17 1013.94 1013.98 1013.81 1013.78 1013.68 1013.67 1013.75 1014.09 1014.03 1014.03 1014.06 1014.07 1014.19 1014.12 1014.12 1014.17 1014.10 1013.91 1013.81 1013.70 1013.61 1013.43 1013.25 1013.21 1013.11 1012.68 1012.24 1011.87 1011.33 1011.08 1010.86 1011.11 1011.42 1011.58 1011.57 1011.30 1011.21 1011.17 1010.82 1010.61 1010.40 1010.03 1009.98 1009.93 1009.76 1009.68 1009.61 1009.39 1009.13 1008.92
1014.47 1014.44 1014.35 1013.97 1013.85 1013.77 1013.84 1013.77 1013.75 1013.80 1013.99 1013.90 1013.83 1013.95 1014.06 1014.21 1014.43 1014.38 1014.26 1014.23 1014.10 1013.89 1013.73 1013.69 1013.83 1013.71 1013.61 1013.57 1013.60 1013.50 1013.28 1012.89 1012.35 1012.05 1011.90 1011.85 1011.75 1011.90 1012.15 1011.92 1011.63 1011.40 1011.19 1010.98 1010.76 1010.65 1010.41 1010.17 1010.06 1009.84 1009.48 1009.05 1008.66 1008.54
1014.41 1014.43 1014.20 1014.11 1013.93 1013.80 1013.91 1014.02 1013.93 1013.96 1014.02 1013.99 1013.90 1014.08 1014.13 1014.15 1014.28 1014.53 1014.35 1014.20 1014.04 1014.12 1014.35 1014.35 1014.35 1014.08 1014.10 1014.01 1013.99 1014.05 1014.27 1014.23 1014.16 1013.99 1013.58 1013.24 1013.10 1012.97 1012.73 1012.41 1012.09 1011.72 1011.34 1010.91 1010.40 1010.04 1009.91 1009.74 1009.39 1009.04 1009.26 1008.79 1008.52 1008.43
1014.48 1014.41 1014.36 1014.35 1014.19 1014.07 1013.99 1014.09 1013.98 1013.97 1013.87 1013.82 1013.73 1013.55 1013.74 1013.89 1014.19 1014.60 1014.61 1014.58 1014.49 1014.51 1014.44 1014.53 1014.73 1014.97 1014.84 1014.91 1014.91 1014.76 1014.67 1014.79 1014.85 1014.77 1014.70 1014.24 1013.71 1013.39 1013.13 1012.78 1012.30 1011.85 1011.42 1010.96 1010.52 1010.22 1010.06 1009.72 1009.60 1009.48 1009.47 1009.45 1009.43 1009.30
1014.28 1014.22 1014.22 1014.15 1014.13 1014.15 1014.15 1013.96 1013.80 1013.70 1013.70 1013.60 1013.57 1013.61 1013.76 1013.97 1014.04 1014.46 1014.93 1014.73 1014.56 1014.63 1015.09 1014.86 1014.68 1015.18 1015.45 1015.57 1015.62 1015.58 1015.91 1015.43 1015.23 1015.13 1014.88 1014.62 1014.17 1013.78 1013.28 1012.69 1012.23 1011.83 1011.38 1010.92 1010.64 1010.44 1010.33 1010.20 1010.09 1010.13 1010.04 1010.01 1009.93 1009.83
1014.25 1014.30 1014.35 1014.28 1014.12 1014.07 1014.12 1014.04 1013.71 1013.57 1013.59 1013.53 1013.59 1013.73 1013.78 1013.94 1014.08 1014.64 1015.21 1015.42 1015.35 1015.26 1015.40 1015.58 1015.47 1015.51 1015.66 1015.63 1015.66 1015.64 1015.63 1015.50 1015.43 1015.24 1015.03 1014.76 1014.48 1014.08 1013.45 1012.90 1012.52 1012.07 1011.63 1011.32 1011.07 1010.82 1010.64 1010.59 1010.48 1010.51 1010.44 1010.39 1010.30 1010.22
Wind_Speed
17 18 17 16 15 14 13 12 11 9 9 9 10 11 9 8 4 2 3 5 3 3 10 12 13 10 5 5 5 7 6 4 3 11 14 9 8 10 8 7 10 10 11 7 5 8 12 7 10 13 10 4 8 14
17 17 17 17 16 15 14 14 14 12 9 9 9 11 11 11 6 3 3 2 2 5 7 9 12 14 18 13 10 4 6 6 4 4 1 2 4 5 9 12 3 11 7 9 11 9 4 9 3 5 4 8 10 17
17 16 16 17 16 15 14 13 12 12 11 10 11 11 12 11 8 5 4 3 1 3 10 8 11 15 17 20 15 5 3 4 4 5 4 3 6 3 9 10 4 6 5 6 6 12 11 7 8 6 4 7 8 13
17 17 16 16 16 16 15 15 14 14 14 13 13 13 13 11 9 6 4 1 2 3 5 5 2 4 5 14 22 19 15 3 7 6 3 3 5 3 2 2 6 1 11 9 6 3 2 8 11 9 7 5 10 13
17 16 16 16 17 17 16 16 16 16 16 16 16 16 15 12 10 7 5 8 8 4 4 8 16 6 11 10 14 16 16 13 6 4 4 4 4 4 2 3 5 4 2 7 5 6 5 3 9 10 9 9 12 19
17 17 17 17 17 17 17 16 16 17 18 18 18 17 15 12 7 1 4 3 7 5 3 5 5 2 4 11 8 9 7 6 5 4 4 4 5 4 4 4 3 4 5 6 2 6 3 2 5 7 10 12 13 14
18 18 18 19 18 19 19 19 19 19 20 19 18 17 12 9 5 4 1 2 8 5 3 4 4 2 8 10 6 3 5 4 4 4 4 4 2 3 3 6 5 7 6 7 8 5 3 7 4 9 14 14 14 16
18 18 19 19 18 19 19 19 19 21 20 19 18 14 6 10 4 4 5 10 9 3 2 3 4 3 5 4 5 6 5 3 5 4 3 4 3 3 5 2 7 7 9 3 6 7 7 4 11 13 15 19 20 19
18 18 19 19 19 19 19 21 22 20 19 20 8 10 4 2 4 2 3 9 6 2 3 3 3 2 1 4 3 2 2 2 3 3 3 3 3 5 2 6 7 7 6 8 4 3 6 9 11 13 16 17 20 21
19 18 19 19 19 20 19 21 22 23 20 8 3 2 2 3 5 15 1 2 4 5 4 4 2 2 2 3 3 5 2 4 3 4 2 4 4 3 3 6 9 9 4 4 5 6 8 10 11 12 12 12 15 18
19 20 19 20 19 20 20 18 20 18 6 1 2 1 2 1 3 2 3 4 4 5 5 4 4 2 0 3 2 1 4 2 4 3 3 2 3 2 8 8 5 4 2 3 4 5 6 11 13 12 13 14 15 19
18 19 19 19 20 20 20 19 16 7 2 3 3 3 3 2 1 3 3 2 5 2 2 3 3 3 2 1 3 2 3 2 3 1 3 2 2 7 9 5 4 5 8 10 11 14 14 14 14 14 15 16 15 16
19 19 19 20 19 20 19 20 14 12 1 1 2 2 1 1 2 2 5 1 3 3 4 3 3 2 3 1 0 1 5 3 1 2 3 2 7 5 6 6 6 7 10 14 15 16 18 18 17 18 18 16 18 16
20 19 19 19 18 18 20 18 13 3 1 2 4 6 6 5 5 4 10 6 2 4 4 3 3 2 2 4 2 3 2 2 4 5 1 4 8 3 4 5 5 9 9 14 16 17 18 18 19 19 18 17 16 17
21 20 19 11 18 20 20 13 3 0 1 4 5 7 4 6 8 10 8 4 2 1 1 2 3 2 1 1 1 2 1 2 3 2 0 4 6 3 5 5 4 8 10 12 13 15 19 19 19 19 15 14 15 14
22 15 3 18 21 21 18 6 1 1 3 4 5 5 7 6 9 10 9 7 7 2 0 2 4 3 4 3 0 5 3 4 4 4 7 7 4 5 6 5 2 6 10 12 12 13 15 16 17 17 17 17 17 17
16 3 14 22 23 18 11 2 3 5 4 5 4 3 7 6 7 8 6 6 5 1 2 0 2 4 3 3 2 2 1 4 6 5 3 1 3 6 7 6 4 9 11 11 11 12 12 13 13 14 15 13 14 14
2 8 19 22 15 6 3 6 3 4 5 3 4 10 6 4 7 7 8 6 5 4 2 2 2 3 3 1 2 4 1 3 6 5 5 6 7 7 5 8 7 10 10 11 10 9 10 10 11 8 11 9 9 8
11 13 16 15 5 3 4 5 4 4 3 3 5 5 4 5 5 6 9 9 3 1 2 4 6 4 4 3 5 7 7 5 4 6 8 9 8 8 6 8 8 9 9 8 8 7 6 6 7 6 6 4 6 5
10 10 13 7 4 2 4 4 2 3 4 5 4 7 5 4 7 7 8 8 6 8 9 7 6 6 5 5 4 5 7 8 6 8 8 7 6 8 8 6 6 7 7 9 7 7 5 4 5 6 6 6 5 6
7 5 9 5 3 5 4 3 3 3 4 3 4 5 4 5 6 9 9 9 6 5 6 5 5 4 5 6 6 7 8 8 8 7 6 6 6 7 7 6 7 5 6 6 7 5 4 3 3 4 5 5 4 5
3 8 3 3 3 3 4 2 2 2 3 3 4 4 4 5 6 6 7 6 6 5 5 4 5 6 8 11 10 9 5 8 7 5 6 7 8 7 9 8 7 7 7 5 5 5 5 4 1 2 4 5 4 4
5 3 1 3 2 5 2 2 2 4 4 6 4 5 4 5 6 6 4 4 2 3 3 4 5 3 4 5 9 9 9 8 7 7 6 5 4 4 4 4 3 4 3 4 3 4 5 4 3 2 3 2 1 2
3 3 4 4 4 2 1 3 1 1 1 3 3 4 5 5 6 5 5 5 5 5 7 8 5 6 8 9 8 7 6 5 5 5 5 4 5 4 2 2 1 1 0 3 2 3 2 2 1 0 1 3 4 5
3 6 3 5 1 3 4 3 3 1 1 2 3 3 3 3 4 5 6 6 6 7 8 7 6 5 5 6 6 7 8 6 5 5 5 5 4 3 3 2 1 1 2 2 2 2 4 5 5 6 6 6 7 7
4 2 3 2 1 2 1 2 2 3 1 1 2 2 2 2 4 4 4 5 4 5 7 6 6 6 6 5 6 7 8 6 5 6 5 4 4 6 5 4 3 4 1 2 3 4 5 5 5 7 7 8 8 8
2 2 2 1 1 1 1 0 0 1 2 2 2 2 2 3 3 3 3 3 3 4 4 3 4 5 5 6 6 5 5 5 4 3 4 5 6 6 6 6 7 6 6 5 4 4 5 4 4 4 5 5 6 6
2 2 2 4 1 1 2 1 3 3 1 1 1 3 2 2 3 3 2 2 3 3 2 3 4 4 5 6 7 8 8 9 8 6 3 4 6 8 10 8 7 9 8 7 7 6 6 6 6 6 6 6 7 7
1 1 2 3 0 2 2 2 2 1 0 1 1 1 1 1 2 3 2 3 3 1 4 6 7 4 4 4 6 8 8 9 11 13 11 8 8 8 9 8 8 8 7 7 6 5 6 7 7 7 8 8 8 8
2 1 1 1 2 1 1 1 2 2 1 1 2 2 2 2 1 1 1 2 2 4 4 4 4 6 7 7 7 7 7 8 8 8 8 8 8 8 9 9 9 9 9 9 9 10 8 7 7 7 7 8 7 8
1 1 2 1 1 1 2 4 2 2 2 3 2 2 3 2 3 2 4 2 3 3 3 5 6 7 7 7 7 7 7 7 10 10 9 8 8 8 8 8 8 8 8 8 8 7 8 7 6 7 7 8 9 8
1 1 1 2 1 1 2 2 1 1 0 2 2 2 2 1 2 2 3 2 4 4 3 3 5 5 4 4 4 4 2 6 8 8 11 8 8 9 9 8 8 8 8 8 7 6 7 7 6 7 7 8 8 9
1 1 1 1 1 2 1 2 0 1 1 1 2 2 2 2 2 3 2 4 3 4 4 3 4 4 3 2 3 4 5 6 8 8 8 9 8 9 7 6 7 7 8 8 8 8 8 8 6 7 7 8 9 9
Wind_Direction
340 337 334 334 335 338 336 328 332 336 317 312 316 313 318 319 331 223 269 189 215 236 271 256 247 257 259 270 289 347 295 183 236 197 201 186 219 203 216 170 171 165 165 181 186 214 249 156 138 201 217 197 189 186
337 336 333 333 332 329 327 331 324 322 314 305 298 303 301 302 297 174 271 164 222 245 277 301 273 258 251 256 260 265 303 302 353 282 281 249 199 181 205 212 177 202 212 182 200 206 219 196 259 225 224 194 184 174
331 331 331 327 324 323 324 324 328 328 324 313 304 299 297 299 284 232 272 291 294 274 277 259 250 251 236 228 224 253 241 298 68 8 319 306 243 180 201 219 192 218 182 199 159 216 224 227 221 250 213 219 177 190
329 327 322 316 318 318 318 317 316 314 309 303 297 292 288 286 287 254 241 206 213 290 277 286 346 232 225 196 213 221 244 250 339 316 284 271 263 214 227 287 235 159 163 174 232 260 218 231 225 215 192 167 151 154
322 324 321 317 317 319 317 313 310 306 302 298 293 287 283 277 265 260 245 226 217 230 293 292 296 274 228 206 206 213 229 252 288 285 242 237 256 244 204 260 235 184 196 196 198 203 217 173 185 177 165 171 159 148
312 316 315 315 314 311 309 304 300 298 295 291 287 286 278 268 251 271 273 189 205 177 261 278 332 272 97 163 187 189 210 214 232 254 254 259 254 257 247 234 113 2 287 263 297 339 322 34 119 154 147 149 147 149
307 311 310 309 312 310 310 306 303 299 295 295 292 287 278 249 187 207 274 63 154 159 242 282 281 264 119 120 158 135 194 215 221 256 239 265 259 246 263 237 28 335 319 286 258 232 205 200 170 156 138 137 133 131
307 310 309 310 312 309 308 304 300 299 305 306 303 301 250 176 151 256 241 210 159 214 212 269 262 213 192 129 171 163 161 209 222 256 266 255 264 234 251 288 330 323 320 320 245 218 302 122 136 137 137 139 136 140
304 310 310 312 311 310 308 306 305 311 317 316 310 127 124 174 181 227 328 190 182 305 293 246 304 67 203 187 144 157 150 235 268 240 256 265 229 232 315 313 315 317 305 293 295 174 150 152 145 147 149 153 144 146
302 305 309 312 313 309 310 307 305 319 324 309 206 211 206 167 350 136 196 124 164 199 223 251 256 259 244 218 141 122 170 184 268 227 246 228 267 311 296 302 290 288 275 167 158 148 154 152 152 152 151 148 144 144
303 303 307 311 313 311 310 303 311 327 309 320 329 289 12 302 173 186 183 220 165 214 203 221 221 272 127 219 140 249 155 173 240 206 254 239 253 1 338 315 307 190 174 281 241 132 147 143 138 138 135 137 138 141
307 305 306 309 312 310 302 309 322 321 286 318 306 287 267 240 35 328 299 223 212 233 313 222 192 207 156 174 236 177 131 235 244 344 254 232 33 347 329 353 44 93 101 94 105 107 108 114 118 120 122 126 129 127
314 312 310 309 312 305 307 318 320 286 253 196 245 261 23 84 350 343 318 294 276 216 186 250 188 182 148 260 77 99 207 180 223 202 255 50 325 332 345 32 78 92 109 108 111 112 113 115 118 121 120 120 116 110
319 317 313 313 309 313 320 326 327 126 256 340 344 1 14 353 344 311 300 285 235 255 353 75 111 250 176 176 148 244 88 237 227 171 136 33 322 323 43 49 95 106 119 118 117 117 116 118 117 116 115 114 108 101
326 319 313 307 320 325 327 333 355 179 338 34 19 5 331 295 292 281 284 256 236 264 235 141 133 217 82 332 341 130 172 298 302 356 85 333 348 29 78 76 104 126 126 115 126 128 124 124 120 113 107 109 109 113
328 319 336 334 329 333 329 338 30 327 50 26 30 322 310 304 329 328 356 11 9 6 252 25 43 32 58 325 293 18 359 336 354 333 329 328 337 71 81 61 121 143 132 129 122 120 118 117 116 114 114 115 120 127
326 10 332 327 328 328 332 12 12 45 47 10 328 334 315 284 319 329 335 347 325 333 61 57 66 42 354 24 63 46 272 269 284 303 302 235 117 102 114 114 86 108 103 94 94 98 95 104 115 116 117 128 134 131
296 318 323 320 332 327 15 20 45 49 25 349 340 332 321 287 323 349 343 343 5 16 359 72 190 126 138 256 2 355 23 352 345 7 23 62 69 73 81 97 90 102 90 89 87 94 99 93 96 106 115 120 117 122
297 301 306 317 347 1 30 38 15 42 348 330 298 314 320 303 349 340 1 5 3 318 347 23 27 4 23 22 355 358 13 18 37 31 43 51 62 74 75 92 107 104 103 104 106 105 98 92 112 133 133 134 128 149
307 301 335 343 350 53 63 32 10 26 7 339 308 337 323 329 325 355 12 6 8 31 37 30 23 1 1 2 357 27 30 20 31 51 46 52 55 66 60 70 77 86 89 99 75 71 75 79 115 130 132 123 133 141
326 351 337 354 38 51 74 12 48 14 326 342 338 342 329 328 3 2 8 345 22 36 27 21 4 350 1 38 45 52 50 42 43 57 26 35 47 51 56 49 60 62 78 93 107 102 91 68 123 135 141 146 142 144
321 337 340 360 56 44 83 49 7 335 327 308 344 350 6 358 343 359 317 20 37 8 353 342 348 351 23 26 26 32 36 84 63 57 32 38 37 41 46 27 34 45 54 40 61 79 71 69 108 140 142 132 137 149
302 338 350 359 88 57 349 293 18 15 16 353 351 11 6 356 348 316 28 19 12 0 326 322 333 336 12 30 42 35 30 36 50 54 62 76 67 45 57 35 15 18 40 84 115 132 125 155 180 133 104 110 170 193
301 9 30 33 27 34 289 37 15 26 59 12 360 11 7 343 330 14 33 9 351 5 29 23 18 46 45 37 37 35 15 4 41 62 42 55 76 68 59 113 152 186 105 121 106 106 85 96 124 206 240 231 229 229
19 354 37 350 79 23 28 13 4 348 63 22 5 18 11 336 16 30 29 5 356 9 12 21 41 34 37 48 43 33 23 14 23 37 33 26 36 84 84 53 41 79 158 184 200 207 191 193 209 231 239 241 248 250
69 2 50 4 13 36 334 348 350 0 338 40 43 9 338 34 23 28 14 352 347 355 2 5 358 15 38 24 12 13 359 352 339 30 41 13 16 15 25 24 33 75 340 280 285 265 264 267 269 270 265 267 256 262
58 48 48 206 298 208 197 158 94 311 24 29 36 37 33 44 17 348 349 2 340 12 6 8 7 28 30 19 17 7 356 357 359 345 347 26 42 43 26 13 11 3 336 332 314 294 298 288 271 272 278 284 285 286
15 38 62 336 301 78 326 54 17 22 45 123 146 43 59 43 23 355 340 346 338 339 3 22 16 28 35 30 18 11 13 1 10 7 20 88 62 35 17 11 11 352 353 2 352 347 347 341 332 319 307 297 295 299
102 95 254 277 1 58 23 37 49 38 134 247 102 132 128 86 351 325 333 335 316 359 42 38 27 13 39 61 43 32 25 18 17 20 19 11 5 9 3 357 355 354 350 337 324 280 296 295 291 292 297 295 296 296
105 333 146 320 298 97 62 327 335 352 217 301 116 140 166 181 194 212 307 352 41 73 71 60 33 32 26 13 14 37 43 33 28 14 354 349 341 335 336 340 340 337 334 327 324 323 320 314 305 302 302 308 311 318
135 135 99 42 297 289 329 325 276 205 202 202 200 190 163 165 153 53 11 23 97 110 79 57 57 37 32 23 15 5 4 15 359 353 348 325 324 336 338 334 329 329 327 328 332 340 347 347 0 360 17 17 19 9
160 145 165 196 235 313 319 321 279 242 221 217 173 190 171 179 243 106 18 139 113 90 48 48 83 74 58 52 39 33 331 349 353 352 351 340 336 334 326 326 332 337 339 341 345 351 358 1 10 18 16 15 8 4
127 136 152 253 247 246 31 303 25 295 219 244 221 222 199 218 266 106 91 19 30 57 78 96 125 126 118 90 49 25 7 6 351 324 335 329 326 333 317 336 334 345 356 359 354 350 351 355 1 0 3 3 3 2